| time (UTC) | temp F | wind direction | speed knots | gust knots | rain 1hr in | rain 24hr in | rain mn in | humidity % | barometer mb |
| 20260502205544 | 66 | 191 | 0.0 | 0.9 | 0.00 | 0.00 | 0.00 | 40 | 1008.9 |
| 20260502205042 | 66 | 231 | 0.0 | 0.9 | 0.00 | 0.00 | 0.00 | 41 | 1008.5 |
| 20260502204538 | 66 | 356 | 0.9 | 1.7 | 0.00 | 0.00 | 0.00 | 41 | 1008.8 |
| 20260502204036 | 66 | 109 | 0.9 | 1.7 | 0.00 | 0.00 | 0.00 | 40 | 1008.7 |
| 20260502203533 | 66 | 284 | 0.0 | 1.7 | 0.00 | 0.00 | 0.00 | 42 | 1008.6 |
| 20260502203030 | 66 | 217 | 0.0 | 1.7 | 0.00 | 0.00 | 0.00 | 41 | 1008.9 |
| 20260502202526 | 66 | 220 | 0.9 | 0.9 | 0.00 | 0.00 | 0.00 | 41 | 1008.7 |
| 20260502202024 | 66 | 222 | 0.0 | 0.9 | 0.00 | 0.00 | 0.00 | 41 | 1009.2 |
| 20260502201520 | 65 | 239 | 0.0 | 0.9 | 0.00 | 0.00 | 0.00 | 43 | 1009.0 |
| 20260502201016 | 64 | 316 | 0.9 | 1.7 | 0.00 | 0.00 | 0.00 | 43 | 1009.0 |
| 20260502200513 | 64 | 237 | 0.9 | 1.7 | 0.00 | 0.00 | 0.00 | 43 | 1009.1 |
| 20260502200011 | 64 | 206 | 0.0 | 0.0 | 0.00 | 0.00 | 0.00 | 44 | 1009.3 |
| 20260502195508 | 64 | 209 | 0.0 | 0.9 | 0.00 | 0.00 | 0.00 | 45 | 1009.2 |
| 20260502195003 | 64 | 188 | 0.9 | 2.6 | 0.00 | 0.00 | 0.00 | 44 | 1009.2 |
| 20260502194501 | 64 | 197 | 0.0 | 0.9 | 0.00 | 0.00 | 0.00 | 44 | 1009.3 |
| 20260502193956 | 64 | 210 | 0.0 | 1.7 | 0.00 | 0.00 | 0.00 | 45 | 1009.4 |
| 20260502193454 | 64 | 181 | 0.9 | 1.7 | 0.00 | 0.00 | 0.00 | 43 | 1009.0 |
| 20260502192949 | 63 | 229 | 0.9 | 1.7 | 0.00 | 0.00 | 0.00 | 45 | 1009.3 |
| 20260502192446 | 63 | 176 | 0.9 | 1.7 | 0.00 | 0.00 | 0.00 | 47 | 1009.2 |
| 20260502191943 | 62 | 210 | 0.9 | 2.6 | 0.00 | 0.00 | 0.00 | 47 | 1009.5 |
| 20260502191441 | 62 | 54 | 0.9 | 2.6 | 0.00 | 0.00 | 0.00 | 48 | 1009.2 |
| 20260502190938 | 61 | 219 | 1.7 | 2.6 | 0.00 | 0.00 | 0.00 | 48 | 1009.6 |
| 20260502190436 | 61 | 167 | 1.7 | 1.7 | 0.00 | 0.00 | 0.00 | 48 | 1009.5 |
| 20260502185932 | 61 | 154 | 2.6 | 4.3 | 0.00 | 0.00 | 0.00 | 49 | 1009.5 |
| 20260502185427 | 61 | 148 | 1.7 | 1.7 | 0.00 | 0.00 | 0.00 | 48 | 1009.4 |
| 20260502184925 | 61 | 188 | 1.7 | 2.6 | 0.00 | 0.00 | 0.00 | 49 | 1009.4 |
| 20260502184420 | 62 | 156 | 2.6 | 5.2 | 0.00 | 0.00 | 0.00 | 50 | 1009.0 |
| 20260502183917 | 62 | 178 | 2.6 | 2.6 | 0.00 | 0.00 | 0.00 | 52 | 1009.5 |
| 20260502183413 | 62 | 185 | 0.9 | 2.6 | 0.00 | 0.00 | 0.00 | 50 | 1009.1 |
| 20260502182909 | 62 | 171 | 0.9 | 1.7 | 0.00 | 0.00 | 0.00 | 52 | 1009.5 |
| 20260502182404 | 60 | 118 | 0.0 | 2.6 | 0.00 | 0.00 | 0.00 | 55 | 1009.2 |
| 20260502181901 | 60 | 206 | 1.7 | 1.7 | 0.00 | 0.00 | 0.00 | 55 | 1009.4 |
| 20260502181359 | 59 | 85 | 1.7 | 1.7 | 0.00 | 0.00 | 0.00 | 58 | 1009.0 |
| 20260502180857 | 58 | 160 | 0.9 | 1.7 | 0.00 | 0.00 | 0.00 | 57 | 1009.5 |
| 20260502180354 | 58 | 171 | 1.7 | 1.7 | 0.00 | 0.00 | 0.00 | 56 | 1009.5 |
| 20260502170312 | 53 | 209 | 0.0 | 2.6 | 0.00 | 0.00 | 0.00 | 56 | 1009.7 |
| 20260502164300 | 55 | 237 | 0.9 | 1.7 | 0.00 | 0.00 | 0.00 | 47 | 1010.6 |
| 20260502163756 | 55 | 217 | 0.0 | 0.0 | 0.00 | 0.00 | 0.00 | 47 | 1010.4 |
| 20260502163252 | 55 | 220 | 0.0 | 2.6 | 0.00 | 0.00 | 0.00 | 46 | 1010.5 |
| 20260502162749 | 55 | 227 | 0.0 | 1.7 | 0.00 | 0.00 | 0.00 | 47 | 1010.4 |
| 20260502162246 | 55 | 251 | 0.9 | 0.9 | 0.00 | 0.00 | 0.00 | 46 | 1010.4 |
| 20260502161743 | 55 | 204 | 2.6 | 2.6 | 0.00 | 0.00 | 0.00 | 45 | 1009.9 |
| 20260502161240 | 55 | 192 | 0.9 | 0.9 | 0.00 | 0.00 | 0.00 | 46 | 1009.8 |
| 20260502160738 | 55 | 214 | 0.0 | 0.9 | 0.00 | 0.00 | 0.00 | 46 | 1010.2 |
| 20260502160237 | 55 | 208 | 0.9 | 1.7 | 0.00 | 0.00 | 0.00 | 48 | 1010.0 |
| 20260502152206 | 55 | 141 | 0.9 | 1.7 | 0.00 | 0.00 | 0.00 | 47 | 1010.4 |
| 20260502151704 | 55 | 213 | 0.9 | 2.6 | 0.00 | 0.00 | 0.00 | 47 | 1010.2 |
| 20260502151201 | 55 | 210 | 0.9 | 1.7 | 0.00 | 0.00 | 0.00 | 47 | 1010.4 |
| 20260502150658 | 54 | 208 | 0.0 | 2.6 | 0.00 | 0.00 | 0.00 | 48 | 1010.2 |
| 20260502150154 | 54 | 144 | 1.7 | 1.7 | 0.00 | 0.00 | 0.00 | 49 | 1010.1 |
| 20260502140118 | 48 | 190 | 1.7 | 2.6 | 0.00 | 0.00 | 0.00 | 53 | 1010.5 |
| 20260502130543 | 44 | 180 | 1.7 | 1.7 | 0.00 | 0.00 | 0.00 | 55 | 1010.8 |
| 20260502123526 | 42 | 208 | 4.3 | 5.2 | 0.00 | 0.00 | 0.00 | 56 | 1011.8 |
| 20260502123022 | 42 | 215 | 1.7 | 5.2 | 0.00 | 0.00 | 0.00 | 55 | 1011.7 |
| 20260502122519 | 42 | 190 | 2.6 | 4.3 | 0.00 | 0.00 | 0.00 | 55 | 1011.7 |
| 20260502122017 | 42 | 201 | 3.5 | 5.2 | 0.00 | 0.00 | 0.00 | 55 | 1011.7 |
| 20260502121514 | 42 | 214 | 4.3 | 7.8 | 0.00 | 0.00 | 0.00 | 55 | 1011.7 |
| 20260502121011 | 41 | 181 | 1.7 | 2.6 | 0.00 | 0.00 | 0.00 | 56 | 1011.8 |
| 20260502120507 | 41 | 232 | 2.6 | 2.6 | 0.00 | 0.00 | 0.00 | 56 | 1011.9 |
| 20260502115502 | 41 | 196 | 1.7 | 2.6 | 0.00 | 0.00 | 0.00 | 56 | 1012.0 |
| 20260502114958 | 42 | 224 | 1.7 | 4.3 | 0.00 | 0.00 | 0.00 | 55 | 1012.1 |
| 20260502114455 | 41 | 204 | 2.6 | 4.3 | 0.00 | 0.00 | 0.00 | 56 | 1012.3 |
| 20260502113952 | 41 | 171 | 1.7 | 4.3 | 0.00 | 0.00 | 0.00 | 57 | 1012.2 |
| 20260502113449 | 40 | 199 | 2.6 | 2.6 | 0.00 | 0.00 | 0.00 | 58 | 1012.3 |
| 20260502112948 | 39 | 189 | 0.9 | 1.7 | 0.00 | 0.00 | 0.00 | 59 | 1012.3 |
| 20260502112445 | 39 | 203 | 0.9 | 1.7 | 0.00 | 0.00 | 0.00 | 60 | 1012.4 |
| 20260502111942 | 38 | 202 | 2.6 | 2.6 | 0.00 | 0.00 | 0.00 | 61 | 1012.4 |
| 20260502111439 | 38 | 178 | 0.9 | 2.6 | 0.00 | 0.00 | 0.00 | 62 | 1012.7 |
| 20260502110937 | 38 | 194 | 0.9 | 1.7 | 0.00 | 0.00 | 0.00 | 63 | 1012.6 |
| 20260502110434 | 37 | 187 | 0.9 | 1.7 | 0.00 | 0.00 | 0.00 | 64 | 1012.8 |
| 20260502105931 | 37 | 184 | 0.9 | 0.9 | 0.00 | 0.00 | 0.00 | 64 | 1012.8 |
| 20260502105429 | 37 | 193 | 0.9 | 1.7 | 0.00 | 0.00 | 0.00 | 64 | 1012.9 |
| 20260502104927 | 38 | 182 | 0.9 | 1.7 | 0.00 | 0.00 | 0.00 | 63 | 1012.9 |
| 20260502104424 | 38 | 194 | 0.0 | 0.9 | 0.00 | 0.00 | 0.00 | 63 | 1013.3 |
| 20260502103921 | 38 | 186 | 0.0 | 0.9 | 0.00 | 0.00 | 0.00 | 63 | 1013.0 |
| 20260502103419 | 38 | 171 | 0.9 | 1.7 | 0.00 | 0.00 | 0.00 | 63 | 1013.1 |
| 20260502102915 | 38 | 188 | 0.0 | 1.7 | 0.00 | 0.00 | 0.00 | 62 | 1013.4 |
| 20260502102412 | 38 | 191 | 0.9 | 1.7 | 0.00 | 0.00 | 0.00 | 62 | 1013.3 |
| 20260502101909 | 38 | 192 | 0.9 | 0.9 | 0.00 | 0.00 | 0.00 | 62 | 1013.6 |
| 20260502101408 | 38 | 119 | 0.9 | 1.7 | 0.00 | 0.00 | 0.00 | 62 | 1013.3 |
| 20260502100905 | 38 | 151 | 0.9 | 0.9 | 0.00 | 0.00 | 0.00 | 62 | 1013.6 |
| 20260502100405 | 38 | 176 | 1.7 | 1.7 | 0.00 | 0.00 | 0.00 | 61 | 1013.6 |
| 20260502091338 | 41 | 120 | 3.5 | 4.3 | 0.00 | 0.00 | 0.00 | 55 | 1014.3 |
| 20260502090836 | 41 | 117 | 0.9 | 1.7 | 0.00 | 0.00 | 0.00 | 55 | 1014.4 |
| 20260502090332 | 42 | 220 | 0.9 | 2.6 | 0.00 | 0.00 | 0.00 | 53 | 1014.4 |
| 20260502071227 | 41 | 151 | 1.7 | 2.6 | 0.00 | 0.00 | 0.00 | 57 | 1016.3 |
| 20260502070726 | 41 | 165 | 0.9 | 1.7 | 0.00 | 0.00 | 0.00 | 57 | 1016.6 |
| 20260502070223 | 41 | 161 | 0.9 | 1.7 | 0.00 | 0.00 | 0.00 | 57 | 1016.5 |
| 20260502065721 | 41 | 182 | 0.9 | 1.7 | 0.00 | 0.00 | 0.00 | 57 | 1016.1 |
| 20260502065219 | 41 | 192 | 0.9 | 0.9 | 0.00 | 0.00 | 0.00 | 56 | 1016.4 |
| 20260502064717 | 41 | 161 | 1.7 | 2.6 | 0.00 | 0.00 | 0.00 | 56 | 1016.4 |
| 20260502064214 | 41 | 191 | 0.9 | 1.7 | 0.00 | 0.00 | 0.00 | 56 | 1016.6 |
| 20260502063712 | 42 | 211 | 1.7 | 1.7 | 0.00 | 0.00 | 0.00 | 55 | 1016.8 |
| 20260502063210 | 42 | 192 | 0.9 | 2.6 | 0.00 | 0.00 | 0.00 | 55 | 1016.6 |
| 20260502062706 | 42 | 186 | 0.9 | 1.7 | 0.00 | 0.00 | 0.00 | 55 | 1016.7 |
| 20260502062204 | 42 | 183 | 0.9 | 1.7 | 0.00 | 0.00 | 0.00 | 55 | 1016.6 |
| 20260502061702 | 42 | 185 | 1.7 | 2.6 | 0.00 | 0.00 | 0.00 | 55 | 1016.7 |
| 20260502061159 | 42 | 168 | 2.6 | 2.6 | 0.00 | 0.00 | 0.00 | 54 | 1016.7 |
| 20260502060654 | 42 | 160 | 1.7 | 1.7 | 0.00 | 0.00 | 0.00 | 54 | 1016.9 |
| 20260502060151 | 42 | 146 | 1.7 | 1.7 | 0.00 | 0.00 | 0.00 | 54 | 1016.9 |
| 20260502055649 | 42 | 178 | 0.9 | 1.7 | 0.00 | 0.00 | 0.00 | 53 | 1017.0 |
| 20260502055147 | 43 | 202 | 0.0 | 0.9 | 0.00 | 0.00 | 0.00 | 53 | 1016.9 |
| 20260502054646 | 43 | 191 | 0.9 | 2.6 | 0.00 | 0.00 | 0.00 | 52 | 1016.9 |
| 20260502054142 | 43 | 191 | 0.9 | 0.9 | 0.00 | 0.00 | 0.00 | 52 | 1016.9 |
| 20260502053640 | 43 | 191 | 0.9 | 0.9 | 0.00 | 0.00 | 0.00 | 51 | 1017.2 |
| 20260502053137 | 43 | 187 | 0.9 | 1.7 | 0.00 | 0.00 | 0.00 | 51 | 1017.4 |
| 20260502052635 | 43 | 195 | 0.9 | 0.9 | 0.00 | 0.00 | 0.00 | 51 | 1017.3 |
| 20260502052133 | 43 | 174 | 0.9 | 1.7 | 0.00 | 0.00 | 0.00 | 50 | 1017.4 |
| 20260502051631 | 44 | 192 | 0.0 | 0.9 | 0.00 | 0.00 | 0.00 | 50 | 1017.4 |
| 20260502051129 | 44 | 189 | 0.9 | 1.7 | 0.00 | 0.00 | 0.00 | 50 | 1017.4 |
| 20260502050625 | 44 | 192 | 0.9 | 0.9 | 0.00 | 0.00 | 0.00 | 49 | 1017.5 |
| 20260502050121 | 44 | 202 | 0.9 | 0.9 | 0.00 | 0.00 | 0.00 | 49 | 1017.6 |
| 20260502045618 | 44 | 184 | 0.0 | 1.7 | 0.00 | 0.00 | 0.00 | 48 | 1017.4 |
| 20260502045115 | 44 | 212 | 0.0 | 0.9 | 0.00 | 0.00 | 0.00 | 48 | 1017.7 |
| 20260502044612 | 44 | 206 | 0.0 | 0.9 | 0.00 | 0.00 | 0.00 | 48 | 1017.6 |
| 20260502044108 | 45 | 174 | 0.9 | 0.9 | 0.00 | 0.00 | 0.00 | 47 | 1017.6 |
| 20260502043606 | 45 | 171 | 0.9 | 1.7 | 0.00 | 0.00 | 0.00 | 47 | 1017.7 |
| 20260502043102 | 45 | 203 | 0.0 | 1.7 | 0.00 | 0.00 | 0.00 | 46 | 1017.8 |
| 20260502042557 | 45 | 201 | 0.0 | 2.6 | 0.00 | 0.00 | 0.00 | 46 | 1017.8 |
| 20260502042055 | 46 | 188 | 0.0 | 1.7 | 0.00 | 0.00 | 0.00 | 46 | 1017.8 |
| 20260502041552 | 46 | 186 | 0.9 | 1.7 | 0.00 | 0.00 | 0.00 | 45 | 1018.0 |
| 20260502041049 | 46 | 168 | 0.9 | 2.6 | 0.00 | 0.00 | 0.00 | 45 | 1017.9 |
| 20260502040545 | 46 | 186 | 0.9 | 1.7 | 0.00 | 0.00 | 0.00 | 45 | 1017.7 |
| 20260502040043 | 46 | 184 | 0.9 | 0.9 | 0.00 | 0.00 | 0.00 | 45 | 1017.8 |
| 20260502035538 | 46 | 189 | 0.9 | 1.7 | 0.00 | 0.00 | 0.00 | 44 | 1017.8 |
| 20260502035036 | 47 | 192 | 0.9 | 0.9 | 0.00 | 0.00 | 0.00 | 44 | 1017.8 |
| 20260502034535 | 47 | 183 | 0.9 | 1.7 | 0.00 | 0.00 | 0.00 | 43 | 1017.8 |
| 20260502034032 | 47 | 191 | 0.0 | 0.9 | 0.00 | 0.00 | 0.00 | 43 | 1017.6 |
| 20260502033530 | 48 | 196 | 0.0 | 0.9 | 0.00 | 0.00 | 0.00 | 43 | 1018.0 |
| 20260502033027 | 48 | 206 | 0.0 | 1.7 | 0.00 | 0.00 | 0.00 | 43 | 1017.7 |
| 20260502032523 | 48 | 195 | 0.0 | 1.7 | 0.00 | 0.00 | 0.00 | 43 | 1017.9 |
| 20260502032020 | 48 | 169 | 2.6 | 2.6 | 0.00 | 0.00 | 0.00 | 42 | 1017.9 |
| 20260502031518 | 49 | 197 | 0.9 | 0.9 | 0.00 | 0.00 | 0.00 | 42 | 1017.8 |
| 20260502031016 | 49 | 197 | 1.7 | 1.7 | 0.00 | 0.00 | 0.00 | 41 | 1017.8 |
| 20260502030514 | 49 | 172 | 0.0 | 1.7 | 0.00 | 0.00 | 0.00 | 42 | 1017.6 |
| 20260502030012 | 49 | 166 | 0.9 | 1.7 | 0.00 | 0.00 | 0.00 | 42 | 1017.7 |
| 20260502025509 | 49 | 156 | 1.7 | 2.6 | 0.00 | 0.00 | 0.00 | 42 | 1017.8 |
| 20260502025007 | 50 | 215 | 0.9 | 1.7 | 0.00 | 0.00 | 0.00 | 42 | 1017.8 |
| 20260502024504 | 50 | 182 | 0.0 | 1.7 | 0.00 | 0.00 | 0.00 | 41 | 1017.9 |
| 20260502024003 | 50 | 180 | 2.6 | 4.3 | 0.00 | 0.00 | 0.00 | 41 | 1017.6 |
| 20260502023459 | 50 | 191 | 0.0 | 0.9 | 0.00 | 0.00 | 0.00 | 41 | 1017.8 |
| 20260502022957 | 50 | 186 | 0.0 | 0.9 | 0.00 | 0.00 | 0.00 | 42 | 1017.7 |
| 20260502022453 | 51 | 190 | 0.9 | 1.7 | 0.00 | 0.00 | 0.00 | 41 | 1017.8 |
| 20260502021950 | 51 | 168 | 0.9 | 1.7 | 0.00 | 0.00 | 0.00 | 41 | 1017.8 |
| 20260502021448 | 51 | 167 | 0.9 | 0.9 | 0.00 | 0.00 | 0.00 | 41 | 1017.6 |
| 20260502020944 | 51 | 162 | 0.9 | 0.9 | 0.00 | 0.00 | 0.00 | 41 | 1017.7 |
| 20260502020443 | 51 | 173 | 0.9 | 1.7 | 0.00 | 0.00 | 0.00 | 40 | 1017.8 |
| 20260502015939 | 52 | 171 | 0.9 | 0.9 | 0.00 | 0.00 | 0.00 | 40 | 1017.8 |
| 20260502015437 | 52 | 183 | 0.0 | 0.9 | 0.00 | 0.00 | 0.00 | 40 | 1017.7 |
| 20260502014933 | 52 | 133 | 0.0 | 1.7 | 0.00 | 0.00 | 0.00 | 39 | 1017.7 |
| 20260502014430 | 52 | 188 | 0.0 | 0.0 | 0.00 | 0.00 | 0.00 | 39 | 1017.7 |
| 20260502013926 | 53 | 191 | 0.0 | 1.7 | 0.00 | 0.00 | 0.00 | 39 | 1017.7 |
| 20260502013422 | 53 | 194 | 0.9 | 1.7 | 0.00 | 0.00 | 0.00 | 38 | 1017.9 |
| 20260502012919 | 53 | 183 | 0.9 | 2.6 | 0.00 | 0.00 | 0.00 | 38 | 1017.8 |
| 20260502012417 | 53 | 154 | 0.9 | 1.7 | 0.00 | 0.00 | 0.00 | 38 | 1018.0 |
| 20260502011914 | 54 | 195 | 0.9 | 0.9 | 0.00 | 0.00 | 0.00 | 37 | 1018.0 |
| 20260502011410 | 54 | 194 | 0.9 | 0.9 | 0.00 | 0.00 | 0.00 | 37 | 1017.9 |
| 20260502010907 | 54 | 177 | 0.0 | 1.7 | 0.00 | 0.00 | 0.00 | 37 | 1017.9 |
| 20260502010404 | 54 | 138 | 0.0 | 1.7 | 0.00 | 0.00 | 0.00 | 37 | 1018.0 |
| 20260502005900 | 55 | 171 | 0.0 | 1.7 | 0.00 | 0.00 | 0.00 | 37 | 1018.0 |
| 20260502005358 | 55 | 120 | 0.9 | 1.7 | 0.00 | 0.00 | 0.00 | 37 | 1018.1 |
| 20260502004856 | 55 | 210 | 0.0 | 1.7 | 0.00 | 0.00 | 0.00 | 36 | 1018.1 |
| 20260502004351 | 55 | 212 | 0.9 | 0.9 | 0.00 | 0.00 | 0.00 | 36 | 1018.2 |
| 20260502003849 | 55 | 187 | 0.0 | 0.9 | 0.00 | 0.00 | 0.00 | 36 | 1018.3 |
| 20260502003346 | 56 | 205 | 0.0 | 0.0 | 0.00 | 0.00 | 0.00 | 35 | 1018.2 |
| 20260502002842 | 56 | 210 | 0.0 | 0.0 | 0.00 | 0.00 | 0.00 | 34 | 1018.3 |
| 20260502002340 | 57 | 201 | 0.0 | 0.9 | 0.00 | 0.00 | 0.00 | 33 | 1018.3 |
| 20260502001837 | 57 | 215 | 0.0 | 0.9 | 0.00 | 0.00 | 0.00 | 34 | 1018.6 |
| 20260502001335 | 57 | 217 | 0.9 | 1.7 | 0.00 | 0.00 | 0.00 | 33 | 1018.3 |
| 20260502000832 | 57 | 197 | 0.0 | 0.0 | 0.00 | 0.00 | 0.00 | 33 | 1018.5 |
| 20260502000332 | 57 | 218 | 0.0 | 0.0 | 0.00 | 0.00 | 0.00 | 32 | 1018.5 |
| 20260501235826 | 59 | 315 | 0.9 | 2.6 | 0.00 | 0.00 | 0.00 | 32 | 1018.6 |
| 20260501235322 | 59 | 208 | 0.0 | 0.0 | 0.00 | 0.00 | 0.00 | 31 | 1018.7 |
| 20260501234817 | 59 | 241 | 0.0 | 0.9 | 0.00 | 0.00 | 0.00 | 32 | 1018.6 |
| 20260501234315 | 59 | 193 | 0.0 | 1.7 | 0.00 | 0.00 | 0.00 | 31 | 1018.4 |
| 20260501233813 | 59 | 231 | 0.9 | 1.7 | 0.00 | 0.00 | 0.00 | 31 | 1018.7 |
| 20260501233310 | 60 | 166 | 0.0 | 0.9 | 0.00 | 0.00 | 0.00 | 32 | 1018.8 |
| 20260501232805 | 60 | 217 | 0.0 | 0.0 | 0.00 | 0.00 | 0.00 | 31 | 1018.8 |
| 20260501232305 | 60 | 61 | 0.9 | 0.9 | 0.00 | 0.00 | 0.00 | 31 | 1018.8 |
| 20260501231800 | 58 | 198 | 0.0 | 1.7 | 0.00 | 0.00 | 0.00 | 32 | 1018.9 |
| 20260501231258 | 59 | 205 | 0.0 | 0.9 | 0.00 | 0.00 | 0.00 | 33 | 1019.0 |
| 20260501230756 | 59 | 210 | 0.0 | 0.0 | 0.00 | 0.00 | 0.00 | 32 | 1018.9 |
| 20260501230255 | 59 | 177 | 1.7 | 1.7 | 0.00 | 0.00 | 0.00 | 33 | 1019.1 |
| 20260501225752 | 59 | 181 | 1.7 | 1.7 | 0.00 | 0.00 | 0.00 | 32 | 1019.1 |
| 20260501225250 | 58 | 52 | 1.7 | 2.6 | 0.00 | 0.00 | 0.00 | 31 | 1019.2 |
| 20260501224745 | 58 | 65 | 0.9 | 1.7 | 0.00 | 0.00 | 0.00 | 33 | 1019.3 |
| 20260501224243 | 58 | 330 | 1.7 | 2.6 | 0.00 | 0.00 | 0.00 | 32 | 1019.2 |
| 20260501223739 | 59 | 303 | 2.6 | 4.3 | 0.00 | 0.00 | 0.00 | 31 | 1019.2 |
| 20260501223235 | 59 | 232 | 2.6 | 2.6 | 0.00 | 0.00 | 0.00 | 31 | 1019.1 |
| 20260501222731 | 59 | 347 | 0.9 | 2.6 | 0.00 | 0.00 | 0.00 | 32 | 1019.3 |
| 20260501222229 | 59 | 145 | 0.0 | 0.9 | 0.00 | 0.00 | 0.00 | 31 | 1019.1 |
| 20260501221726 | 58 | 274 | 0.9 | 0.9 | 0.00 | 0.00 | 0.00 | 32 | 1019.3 |
| 20260501221223 | 58 | 260 | 1.7 | 1.7 | 0.00 | 0.00 | 0.00 | 32 | 1019.5 |
| 20260501220720 | 58 | 6 | 1.7 | 1.7 | 0.00 | 0.00 | 0.00 | 32 | 1019.5 |
| 20260501220218 | 58 | 203 | 0.9 | 1.7 | 0.00 | 0.00 | 0.00 | 32 | 1019.3 |
| 20260501215715 | 58 | 297 | 0.0 | 1.7 | 0.00 | 0.00 | 0.00 | 32 | 1019.4 |
| 20260501215209 | 57 | 312 | 0.9 | 2.6 | 0.00 | 0.00 | 0.00 | 34 | 1019.6 |
| 20260501214704 | 56 | 198 | 0.9 | 0.9 | 0.00 | 0.00 | 0.00 | 33 | 1019.8 |
| 20260501214201 | 57 | 229 | 0.0 | 1.7 | 0.00 | 0.00 | 0.00 | 34 | 1019.7 |
| 20260501213657 | 56 | 50 | 0.9 | 0.9 | 0.00 | 0.00 | 0.00 | 35 | 1019.7 |
| 20260501213153 | 56 | 156 | 0.0 | 2.6 | 0.00 | 0.00 | 0.00 | 34 | 1019.7 |
| 20260501212650 | 56 | 173 | 2.6 | 2.6 | 0.00 | 0.00 | 0.00 | 36 | 1019.9 |
| 20260501212147 | 55 | 117 | 0.9 | 2.6 | 0.00 | 0.00 | 0.00 | 35 | 1019.9 |
| 20260501211643 | 56 | 39 | 1.7 | 1.7 | 0.00 | 0.00 | 0.00 | 35 | 1020.0 |
| 20260501211141 | 55 | 201 | 0.0 | 0.9 | 0.00 | 0.00 | 0.00 | 36 | 1020.1 |
| 20260501210637 | 56 | 349 | 1.7 | 2.6 | 0.00 | 0.00 | 0.00 | 35 | 1020.0 |
| 20260501210135 | 56 | 203 | 0.0 | 0.9 | 0.00 | 0.00 | 0.00 | 36 | 1020.2 |